Flag for Switzerland Weather past 2 weeks in Arth, Schwyz, Switzerland

Now
63 °F

Mild.


Feels Like: 63 °F
Forecast: 46 / 59 °F
Wind: 1 mph from Northeast

Location: Altdorf

Current Time: Aug 29, 2014 at 10:30:14 PM

Latest Report: Aug 29, 2014 at 9:00 PM


Visibility: N/A

Pressure: 30.08 "Hg

Humidity: 97%

Dew point: 62 °F

Location of ArthLocation

Historic Weather in Arth — Graph

°F

Arth temperature yesterday

Maximum temperature yesterday: 74 °F (at 4:00 PM)
Minimum temperature yesterday: 53 °F (at 7:00 AM)
Average temperature yesterday: 63 °F

Past Weeks' High & Low Weather Summary

 TemperatureHumidityPressure
High74 °F (Aug 28, 4:00 PM)99% (Aug 27, 12:00 AM)30.22 "Hg (Aug 27, 12:00 AM)
Low46 °F (Aug 17, 6:00 AM)47% (Aug 24, 3:00 PM)29.79 "Hg (Aug 26, 7:00 AM)
Average60 °F79%30.01 "Hg
* Reported Aug 14 8:00 PM — Aug 29 8:00 PM, Arth, Weather by CustomWeather, © 2014

Note: Actual official high and low records may vary slightly from our data, if they occured in-between our weather recording intervals... More about our weather records

Advertising

Arth weather history for previous 24 hours

 ConditionsComfort  
Time TempWeatherWind HumidityBarometerVisibility
8:00 PM
Aug 29
64 °FPartly sunny.3 mph96%30.06 "Hg8 mi
7:00 PM65 °FMild.2 mph94%30.05 "HgN/A
6:00 PM65 °FMild.9 mph87%30.05 "HgN/A
5:00 PM68 °FRain. Overcast.2 mph88%30.01 "Hg9 mi
4:00 PM70 °FMild.5 mph70%30.00 "HgN/A
3:00 PM71 °FMild.2 mph66%30.01 "HgN/A
2:00 PM69 °FPartly sunny.3 mph74%30.02 "Hg12 mi
1:00 PM69 °FMild.2 mph76%30.03 "HgN/A
12:00 PM68 °FMild.2 mph73%30.05 "HgN/A
11:00 AM66 °FPartly sunny.1 mph78%30.07 "Hg12 mi
10:00 AM64 °FMild.2 mph84%30.08 "HgN/A
9:00 AM62 °FCool.2 mph84%30.06 "HgN/A
8:00 AM60 °FOvercast.2 mph91%30.06 "Hg11 mi
7:00 AM59 °FCool.1 mph90%30.06 "HgN/A
6:00 AM58 °FCool.2 mph91%30.06 "HgN/A
5:00 AM60 °FOvercast.5 mph87%30.06 "Hg9 mi
4:00 AM58 °FCool.3 mph94%30.08 "HgN/A
3:00 AM60 °FCool.1 mph90%30.07 "HgN/A
2:00 AM60 °FOvercast.2 mph90%30.08 "Hg11 mi
1:00 AM62 °FMild.1 mph87%30.08 "HgN/A
12:00 AM64 °FMild.1 mph85%30.07 "HgN/A
11:00 PM
Aug 28
65 °FOvercast.2 mph81%30.07 "Hg9 mi
10:00 PM65 °FMild.1 mph81%30.06 "HgN/A
Weather by CustomWeather, © 2014

See weather overviewHow to use our weather pages